User: anonymous   Login
Location: Hepcat Sky Observatory
(29.9800°N, 95.6500°W)
Time: 21:52:39
(UTC-05:00)
Language:

Cosmos 1602 Rocket - Orbit

View from above orbital plane
View from above orbital plane
View from above satellite
View from above satellite

Ground track
Ground track

The orbit data is extracted from the following two-line orbital elements,

1 15332U 84105B   17293.55336701 +.00000082 +00000-0 +70678-5 0  9997
2 15332 082.5345 070.8900 0020126 320.2401 087.1588 14.83326146764080
Epoch (UTC): 20 October 2017 13:16:50
Eccentricity: 0.0020126
inclination: 82.5345°
perigee height: 605 km
apogee height: 633 km
right ascension of ascending node: 70.8900°
argument of perigee: 320.2401°
revolutions per day: 14.83326146
mean anomaly at epoch: 87.1588°
orbit number at epoch: 76408

The dashed part of the orbit path shows where the satellite is in the earth's shadow,  

DLR